Location: Agadir Irigdalene
(31.2522°N, 8.7797°W)
Time: 16:28:27
(UTC+00:00)

Okean O Rocket - Pass Details

Date: 01 December 2020
Orbit: 622 x 645 km, 98.2° (Epoch: 26 January)

Event Time Altitude Azimuth Distance (km) Brightness Sun altitude
Rises 17:52:33 0° 154° (SSE) 2,890 5.0 -4.8°
Reaches altitude 10° 17:54:46 10° 149° (SSE) 1,989 4.1 -5.3°
Maximum altitude 17:58:57 49° 74° (ENE) 814 1.8 -6.1°
Drops below altitude 10° 18:03:09 10° 0° (N) 2,012 4.0 -6.9°
Sets 18:05:25 0° 355° (N) 2,927 4.9 -7.4°
